DW0542 Weather Reports


Display with metric or nautical units.
time (UTC)temp
F
wind
direction
speed
MPH
gust
MPH
rain 1hr
in
rain 24hr
in
rain mn
in
humidity
%
barometer
mb
20210802093049 62 253 0.0 0.0 0.00 0.02 0.01 90 1010.0
20210802091601 62 253 0.0 0.0 0.00 0.02 0.01 89 1009.9
20210802090209 63 253 0.0 0.0 0.00 0.02 0.01 90 1009.6
20210802084617 63 253 0.0 1.0 0.00 0.02 0.01 90 1009.4
20210802083047 62 253 0.0 0.0 0.00 0.02 0.01 90 1009.4
20210802081608 62 253 0.0 3.0 0.00 0.03 0.01 90 1009.5
20210802080046 61 254 0.0 0.0 0.00 0.03 0.01 90 1009.6
20210802074559 62 254 0.0 0.0 0.00 0.03 0.01 90 1009.7
20210802073054 62 254 0.0 0.0 0.01 0.03 0.01 90 1009.7
20210802071609 62 254 0.0 0.0 0.01 0.03 0.01 89 1009.7
20210802070045 62 254 0.0 0.0 0.01 0.03 0.01 88 1009.6
20210802064614 63 254 0.0 0.0 0.01 0.03 0.01 88 1009.8
20210802063119 63 254 0.0 0.0 0.00 0.02 0.00 89 1009.8
20210802061556 63 194 0.0 2.0 0.00 0.02 0.00 90 1010.3
20210802060022 62 169 0.0 0.0 0.00 0.02 0.00 91 1010.1
20210802054539 61 145 0.0 0.0 0.00 0.02 0.00 89 1010.0
20210802053029 61 145 0.0 0.0 0.00 0.02 0.00 89 1009.7
20210802051553 62 145 0.0 0.0 0.00 0.02 0.00 88 1010.1
20210802044517 63 145 0.0 0.0 0.00 0.02 0.00 87 1009.7
20210802043018 63 145 0.0 0.0 0.00 0.02 0.00 86 1009.7
20210802041525 63 146 0.0 0.0 0.00 0.02 0.02 85 1010.3
20210802034703 64 145 0.0 0.0 0.00 0.02 0.02 85 1010.9
20210802033203 64 146 0.0 0.0 0.00 0.02 0.02 84 1010.8
20210802031733 64 146 0.0 0.0 0.00 0.02 0.02 83 1010.9
20210802030126 64 146 0.0 0.0 0.00 0.02 0.02 82 1011.1
20210802024721 65 146 0.0 0.0 0.00 0.02 0.02 82 1011.2
20210802014630 65 146 0.0 0.0 0.00 0.02 0.02 79 1011.9
20210802011720 66 146 0.0 0.0 0.00 0.02 0.02 77 1011.7
20210801230052 70 122 0.0 3.0 0.00 0.02 0.02 70 1011.0
20210801224552 71 70 0.0 4.0 0.00 0.02 0.02 69 1011.0
20210801223043 72 173 0.0 2.0 0.00 0.02 0.02 69 1010.9
20210801221525 73 49 0.0 10.0 0.00 0.02 0.02 66 1010.7
20210801220025 74 168 0.0 6.0 0.00 0.02 0.02 66 1010.6
20210801214546 74 189 0.0 1.0 0.00 0.02 0.02 66 1010.7
20210801213035 73 201 0.0 0.0 0.00 0.02 0.02 69 1010.9
20210801211523 73 201 0.0 0.0 0.00 0.02 0.02 68 1011.0
20210801204510 74 201 0.0 4.0 0.00 0.02 0.02 65 1011.2
20210801203005 74 200 0.0 1.0 0.00 0.02 0.02 66 1011.2
20210801201508 74 201 0.0 8.0 0.00 0.02 0.02 64 1011.3
20210801200023 74 193 0.0 10.0 0.00 0.02 0.02 65 1011.3
20210801194502 75 200 1.0 8.0 0.00 0.02 0.02 64 1011.5
20210801193221 75 72 0.0 8.0 0.00 0.02 0.02 61 1011.5
20210801190209 75 164 0.0 5.0 0.01 0.03 0.02 63 1011.9
20210801184621 75 81 0.0 1.0 0.01 0.03 0.02 64 1012.1
20210801183107 75 239 2.0 7.0 0.01 0.03 0.02 60 1012.2
20210801181600 76 200 1.0 6.0 0.00 0.02 0.01 62 1012.3
20210801180027 76 191 0.0 1.0 0.00 0.02 0.01 59 1012.5
20210801174520 75 80 0.0 4.0 0.00 0.02 0.01 63 1012.6
20210801173028 74 227 0.0 5.0 0.00 0.02 0.01 63 1012.8
20210801171522 73 199 0.0 9.0 0.00 0.02 0.01 64 1013.1
20210801170013 73 52 0.0 7.0 0.00 0.02 0.01 65 1013.2
20210801164503 72 223 0.0 11.0 0.00 0.02 0.01 64 1013.3
20210801163224 72 219 0.0 8.0 0.00 0.02 0.01 64 1013.3
20210801161808 72 211 0.0 5.0 0.00 0.02 0.01 63 1013.6
20210801160211 71 213 0.0 4.0 0.00 0.02 0.01 63 1013.7
20210801154642 70 230 0.0 5.0 0.00 0.02 0.01 67 1013.9
20210801153129 70 236 0.0 8.0 0.00 0.02 0.01 66 1013.9
20210801151627 70 201 0.0 5.0 0.00 0.02 0.01 68 1014.1
20210801150059 69 199 4.0 9.0 0.00 0.02 0.01 66 1014.0
20210801144650 69 205 0.0 8.0 0.00 0.02 0.01 69 1014.0
20210801143143 69 197 0.0 6.0 0.00 0.02 0.01 67 1014.0
20210801141626 68 202 0.0 5.0 0.00 0.02 0.01 68 1014.0
20210801140045 68 207 3.0 8.0 0.00 0.02 0.01 68 1014.0
20210801134535 66 263 2.0 6.0 0.00 0.02 0.01 73 1014.0
20210801133138 65 265 0.0 0.0 0.00 0.02 0.01 73 1014.0
20210801131525 64 265 0.0 1.0 0.00 0.02 0.01 77 1013.9
20210801124728 60 263 0.0 0.0 0.00 0.02 0.01 86 1014.6
20210801123034 60 263 0.0 0.0 0.00 0.02 0.01 89 1014.5
20210801121639 58 263 0.0 0.0 0.00 0.02 0.01 92 1014.5
20210801114508 56 263 0.0 0.0 0.00 0.02 0.01 93 1014.7
20210801113005 54 263 0.0 0.0 0.00 0.02 0.01 93 1014.9
20210801111641 53 263 0.0 0.0 0.00 0.02 0.01 93 1014.7
20210801110223 53 263 0.0 0.0 0.00 0.02 0.01 93 1014.8
20210801104713 52 263 0.0 0.0 0.00 0.02 0.01 92 1014.6
20210801103249 51 263 0.0 0.0 0.00 0.02 0.01 92 1014.6
20210801101619 51 265 0.0 0.0 0.00 0.02 0.01 92 1014.4
20210801100138 51 269 0.0 0.0 0.00 0.02 0.01 92 1014.3
20210801094758 51 269 0.0 0.0 0.00 0.02 0.01 92 1014.4